• In Moldova, Republic
  • List of Countries
  • For 7 days
  • Water Temperature
  • Satellite Maps
  • Weather Map
  • Weather Widgets
  • user-avatar
    Login

    Hourly Weather Eisenstadt

    Today, 29 June, Thursday

    Time Temperature Precipitation Wind Pressure Humidity
    00:00 +20°C° 0.1 mm 6 mps 711 mmHg 74%
    01:00 +20°C° 0.1 mm 5 mps 710 mmHg 74%
    02:00 +19°C° 0 mm 5 mps 710 mmHg 76%
    03:00 +19°C° 0 mm 5 mps 710 mmHg 78%
    04:00 +17°C° 0 mm 5 mps 709 mmHg 80%
    05:00 +19°C° 0 mm 5 mps 710 mmHg 79%
    06:00 +20°C° 0 mm 5 mps 710 mmHg 77%
    07:00 +20°C° 0 mm 5 mps 710 mmHg 76%
    08:00 +21°C° 0.2 mm 5 mps 711 mmHg 70%
    09:00 +22°C° 0.2 mm 5 mps 711 mmHg 65%
    10:00 +25°C° 0.2 mm 5 mps 711 mmHg 60%
    11:00 +25°C° 1.1 mm 5 mps 712 mmHg 60%
    12:00 +25°C° 1.1 mm 5 mps 712 mmHg 60%
    13:00 +25°C° 1.1 mm 5 mps 712 mmHg 61%
    14:00 +25°C° 1 mm 4 mps 712 mmHg 61%
    15:00 +25°C° 1 mm 4 mps 712 mmHg 61%
    16:00 +25°C° 1 mm 4 mps 713 mmHg 61%
    17:00 +24°C° 0.6 mm 3 mps 713 mmHg 65%
    18:00 +22°C° 0.6 mm 3 mps 713 mmHg 69%
    19:00 +21°C° 0.6 mm 2 mps 713 mmHg 74%
    20:00 +19°C° 0.1 mm 2 mps 713 mmHg 76%
    21:00 +17°C° 0.1 mm 2 mps 713 mmHg 78%
    22:00 +16°C° 0.1 mm 2 mps 714 mmHg 80%
    23:00 +16°C° 0 mm 2 mps 714 mmHg 80%

    Tomorrow, 30 June, Friday

    Time Temperature Precipitation Wind Pressure Humidity
    00:00 +15°C° 0 mm 2 mps 714 mmHg 80%
    01:00 +15°C° 0 mm 2 mps 714 mmHg 79%
    02:00 +15°C° 0 mm 2 mps 715 mmHg 81%
    03:00 +14°C° 0 mm 2 mps 715 mmHg 83%
    04:00 +14°C° 0 mm 2 mps 715 mmHg 85%
    05:00 +15°C° 0 mm 2 mps 716 mmHg 81%
    06:00 +17°C° 0 mm 2 mps 716 mmHg 76%
    07:00 +18°C° 0 mm 2 mps 717 mmHg 72%
    08:00 +19°C° 0.1 mm 2 mps 717 mmHg 68%
    09:00 +20°C° 0.1 mm 2 mps 717 mmHg 63%
    10:00 +22°C° 0.1 mm 3 mps 718 mmHg 58%
    11:00 +22°C° 0.4 mm 3 mps 718 mmHg 58%
    12:00 +23°C° 0.4 mm 2 mps 718 mmHg 57%
    13:00 +24°C° 0.4 mm 2 mps 718 mmHg 56%
    14:00 +24°C° 0.4 mm 3 mps 718 mmHg 55%
    15:00 +25°C° 0.4 mm 3 mps 718 mmHg 53%
    16:00 +25°C° 0.4 mm 3 mps 718 mmHg 51%
    17:00 +24°C° 0 mm 3 mps 718 mmHg 55%
    18:00 +22°C° 0 mm 4 mps 717 mmHg 59%
    19:00 +20°C° 0 mm 4 mps 717 mmHg 62%
    20:00 +19°C° 0 mm 3 mps 717 mmHg 64%
    21:00 +18°C° 0 mm 3 mps 717 mmHg 66%
    22:00 +17°C° 0 mm 3 mps 717 mmHg 68%
    23:00 +17°C° 0.2 mm 3 mps 717 mmHg 73%

    Day after tomorrow, 1 July, Saturday

    Time Temperature Precipitation Wind Pressure Humidity
    00:00 +16°C° 0.2 mm 2 mps 717 mmHg 78%
    01:00 +15°C° 0.2 mm 2 mps 717 mmHg 83%
    02:00 +15°C° 0.3 mm 2 mps 717 mmHg 86%
    03:00 +15°C° 0.3 mm 2 mps 717 mmHg 88%
    04:00 +15°C° 0.3 mm 2 mps 717 mmHg 90%
    05:00 +15°C° 1.5 mm 2 mps 717 mmHg 90%
    06:00 +14°C° 1.5 mm 3 mps 717 mmHg 91%
    07:00 +14°C° 1.5 mm 4 mps 718 mmHg 91%
    08:00 +14°C° 0.6 mm 4 mps 718 mmHg 87%
    09:00 +15°C° 0.6 mm 4 mps 719 mmHg 84%
    10:00 +15°C° 0.6 mm 4 mps 719 mmHg 81%
    11:00 +18°C° 0.1 mm 3 mps 719 mmHg 71%
    12:00 +20°C° 0.1 mm 3 mps 719 mmHg 61%
    13:00 +22°C° 0.1 mm 3 mps 720 mmHg 51%
    14:00 +23°C° 0.1 mm 2 mps 719 mmHg 50%
    15:00 +23°C° 0.1 mm 2 mps 719 mmHg 49%
    16:00 +24°C° 0.1 mm 2 mps 719 mmHg 49%
    17:00 +23°C° 0.1 mm 2 mps 719 mmHg 55%
    18:00 +21°C° 0.1 mm 1 mps 719 mmHg 62%
    19:00 +20°C° 0.1 mm 1 mps 719 mmHg 69%
    20:00 +19°C° 0.4 mm 1 mps 719 mmHg 73%
    21:00 +16°C° 0.4 mm 1 mps 719 mmHg 76%
    22:00 +15°C° 0.4 mm 1 mps 720 mmHg 79%
    23:00 +15°C° 0.5 mm 2 mps 720 mmHg 81%

    2 July, Sunday

    Time Temperature Precipitation Wind Pressure Humidity
    00:00 +14°C° 0.5 mm 2 mps 720 mmHg 84%
    01:00 +14°C° 0.5 mm 2 mps 720 mmHg 86%
    02:00 +14°C° 0.1 mm 2 mps 720 mmHg 86%
    03:00 +13°C° 0.1 mm 2 mps 720 mmHg 86%
    04:00 +12°C° 0.1 mm 3 mps 720 mmHg 86%
    05:00 +14°C° 0 mm 3 mps 720 mmHg 82%
    06:00 +16°C° 0 mm 3 mps 720 mmHg 78%
    07:00 +17°C° 0 mm 4 mps 721 mmHg 75%
    08:00 +18°C° 0.3 mm 4 mps 721 mmHg 72%
    09:00 +18°C° 0.3 mm 4 mps 721 mmHg 70%
    10:00 +19°C° 0.3 mm 5 mps 721 mmHg 68%
    11:00 +17°C° 0.5 mm 5 mps 721 mmHg 70%
    12:00 +17°C° 0.5 mm 5 mps 722 mmHg 73%
    13:00 +17°C° 0.5 mm 6 mps 722 mmHg 75%
    14:00 +17°C° 0.1 mm 6 mps 722 mmHg 70%
    15:00 +17°C° 0.1 mm 6 mps 722 mmHg 66%
    16:00 +18°C° 0.1 mm 7 mps 722 mmHg 62%
    17:00 +17°C° 0 mm 6 mps 723 mmHg 64%
    18:00 +17°C° 0 mm 5 mps 723 mmHg 67%
    19:00 +16°C° 0 mm 5 mps 723 mmHg 70%
    20:00 +15°C° 0 mm 5 mps 723 mmHg 73%
    21:00 +14°C° 0 mm 4 mps 724 mmHg 76%
    22:00 +13°C° 0 mm 4 mps 724 mmHg 79%
    23:00 +13°C° 0 mm 4 mps 724 mmHg 79%

    3 July, Monday

    Time Temperature Precipitation Wind Pressure Humidity
    00:00 +13°C° 0 mm 4 mps 724 mmHg 80%
    01:00 +13°C° 0 mm 4 mps 724 mmHg 80%
    02:00 +13°C° 0 mm 4 mps 724 mmHg 82%
    03:00 +13°C° 0 mm 3 mps 724 mmHg 83%
    04:00 +13°C° 0 mm 3 mps 724 mmHg 85%
    05:00 +14°C° 0.1 mm 3 mps 724 mmHg 82%
    06:00 +15°C° 0.1 mm 4 mps 725 mmHg 79%
    07:00 +17°C° 0.1 mm 4 mps 725 mmHg 75%
    08:00 +17°C° 0.1 mm 4 mps 725 mmHg 72%
    09:00 +17°C° 0.1 mm 5 mps 725 mmHg 69%
    10:00 +17°C° 0.1 mm 5 mps 725 mmHg 65%
    11:00 +20°C° 0 mm 5 mps 725 mmHg 59%
    12:00 +21°C° 0 mm 5 mps 725 mmHg 52%
    13:00 +22°C° 0 mm 5 mps 725 mmHg 45%
    14:00 +23°C° 0 mm 5 mps 725 mmHg 44%
    15:00 +23°C° 0 mm 5 mps 725 mmHg 44%
    16:00 +23°C° 0 mm 5 mps 724 mmHg 44%
    17:00 +22°C° 0 mm 4 mps 724 mmHg 50%
    18:00 +20°C° 0 mm 3 mps 724 mmHg 56%
    19:00 +19°C° 0 mm 2 mps 724 mmHg 63%
    20:00 +17°C° 0 mm 2 mps 724 mmHg 68%
    21:00 +15°C° 0 mm 2 mps 724 mmHg 73%
    22:00 +14°C° 0 mm 2 mps 724 mmHg 77%
    23:00 +13°C° 0 mm 2 mps 724 mmHg 81%

    4 July, Tuesday

    Time Temperature Precipitation Wind Pressure Humidity
    00:00 +12°C° 0 mm 1 mps 724 mmHg 84%
    01:00 +12°C° 0 mm 1 mps 724 mmHg 87%
    02:00 +12°C° 0.1 mm 1 mps 724 mmHg 86%
    03:00 +12°C° 0.1 mm 1 mps 724 mmHg 86%
    04:00 +12°C° 0.1 mm 1 mps 723 mmHg 85%
    05:00 +14°C° 0 mm 2 mps 724 mmHg 80%
    06:00 +16°C° 0 mm 2 mps 724 mmHg 74%
    07:00 +18°C° 0 mm 2 mps 724 mmHg 69%
    08:00 +19°C° 0.2 mm 2 mps 724 mmHg 64%
    09:00 +21°C° 0.2 mm 3 mps 724 mmHg 59%
    10:00 +22°C° 0.2 mm 3 mps 724 mmHg 54%
    11:00 +24°C° 0.4 mm 3 mps 724 mmHg 53%
    12:00 +24°C° 0.4 mm 3 mps 724 mmHg 52%
    13:00 +25°C° 0.4 mm 3 mps 723 mmHg 51%
    14:00 +25°C° 0.4 mm 3 mps 723 mmHg 51%
    15:00 +25°C° 0.4 mm 3 mps 723 mmHg 52%
    16:00 +25°C° 0.4 mm 3 mps 723 mmHg 52%
    17:00 +22°C° 0.1 mm 3 mps 723 mmHg 58%
    18:00 +21°C° 0.1 mm 2 mps 723 mmHg 63%
    19:00 +20°C° 0.1 mm 2 mps 723 mmHg 69%
    20:00 +18°C° 0 mm 2 mps 723 mmHg 73%
    21:00 +17°C° 0 mm 2 mps 723 mmHg 76%
    22:00 +15°C° 0 mm 2 mps 723 mmHg 80%
    23:00 +15°C° 0 mm 2 mps 723 mmHg 82%
    Show more